Home   Weather   Vicksburg   Past weeks
Flag for USA

Past Weather in Vicksburg, Mississippi, USA — Yesterday and Last 2 Weeks

Now
68 °F

Sunny.


Feels Like: 68 °F
Forecast: 68 / 58 °F
Wind: 3 mph from Southeast

Location: Vicksburg Municipal

Current Time: Apr 4, 2020 at 5:12:03 pm

Latest Report: Apr 4, 2020 at 4:35 pm


Visibility: 10 mi

Pressure: 29.96 "Hg

Humidity: 88%

Dew Point: 64 °F

Location of VicksburgLocation

Past Weather in Vicksburg — Graph

°F

Vicksburg Temperature Yesterday

Maximum temperature yesterday: 73 °F (at 12:35 pm)
Minimum temperature yesterday: 59 °F (at 5:15 am)
Average temperature yesterday: 66 °F

High & Low Weather Summary for the Past Weeks

 TemperatureHumidityPressure
High86 °F (Mar 27, 3:35 pm)100% (Mar 20, 4:35 pm)30.41 "Hg (Mar 20, 4:35 pm)
Low43 °F (Apr 1, 4:55 am)34% (Apr 2, 2:35 pm)29.71 "Hg (Mar 31, 3:55 am)
Average66 °F83%30.01 "Hg
* Reported Mar 20 4:35 pm — Apr 4 4:15 pm, Vicksburg. Weather by CustomWeather, © 2020

Note: Actual official high and low records may vary slightly from our data, if they occured in-between our weather recording intervals... More about our weather records

Vicksburg Weather History for the Previous 24 Hours

Scroll right to see more
 ConditionsComfort  
Time TempWeatherWind HumidityBarometerVisibility
4:15 pm
Sat, Apr 4
68 °FSunny.No wind83%29.97 "Hg8 mi
3:55 pm66 °FScattered clouds.No wind88%29.98 "Hg10 mi
3:35 pm68 °FScattered clouds.No wind83%29.99 "Hg10 mi
2:55 pm66 °FScattered clouds.No wind94%29.99 "Hg10 mi
2:15 pm66 °FPassing clouds.7 mph88%30.00 "Hg10 mi
1:15 pm64 °FFog.6 mph100%30.01 "Hg6 mi
12:55 pm64 °FFog.6 mph100%30.03 "Hg6 mi
12:35 pm64 °FSunny.3 mph100%30.04 "Hg10 mi
12:15 pm64 °FSunny.5 mph94%30.04 "Hg9 mi
11:55 am64 °FSunny.7 mph100%30.03 "Hg8 mi
11:35 am64 °FFog.7 mph100%30.04 "Hg4 mi
11:15 am64 °FFog.7 mph94%30.05 "Hg3 mi
10:55 am64 °FPartly sunny.No wind88%30.05 "Hg10 mi
10:35 am64 °FScattered clouds.No wind88%30.03 "Hg10 mi
10:15 am64 °FScattered clouds.5 mph83%30.02 "Hg10 mi
9:55 am64 °FSunny.7 mph83%30.01 "Hg10 mi
9:35 am64 °FSunny.8 mph83%30.01 "Hg10 mi
9:15 am64 °FSunny.8 mph88%30.02 "Hg10 mi
8:55 am64 °FSunny.7 mph88%30.00 "Hg10 mi
8:35 am64 °FPassing clouds.6 mph94%30.00 "Hg10 mi
7:55 am63 °FScattered clouds.No wind100%30.00 "Hg10 mi
7:35 am63 °FPassing clouds.No wind100%30.00 "Hg9 mi
7:15 am61 °FPassing clouds.No wind100%29.99 "Hg10 mi
6:55 am61 °FScattered clouds.No wind100%29.99 "Hg10 mi
6:35 am63 °FPassing clouds.No wind100%29.99 "Hg10 mi
6:15 am61 °FPartly cloudy.No wind100%29.99 "Hg10 mi
5:55 am61 °FPassing clouds.No wind100%29.98 "Hg10 mi
5:35 am61 °FMostly cloudy.No wind100%29.98 "Hg10 mi
5:15 am61 °FOvercast.No wind100%29.99 "Hg10 mi
4:55 am61 °FOvercast.No wind100%29.98 "Hg10 mi
4:35 am61 °FOvercast.No wind100%29.97 "Hg10 mi
4:15 am61 °FOvercast.No wind100%29.96 "Hg10 mi
3:55 am61 °FOvercast.No wind100%29.96 "Hg10 mi
3:35 am61 °FPassing clouds.No wind100%29.97 "Hg10 mi
3:15 am61 °FPassing clouds.No wind100%29.98 "Hg10 mi
2:55 am63 °FClear.No wind94%29.98 "Hg10 mi
2:35 am63 °FClear.No wind94%29.98 "Hg10 mi
2:15 am61 °FClear.No wind100%29.99 "Hg10 mi
1:55 am61 °FClear.No wind100%29.99 "Hg10 mi
1:35 am61 °FClear.No wind100%30.00 "Hg10 mi
12:55 am61 °FClear.No wind100%30.00 "Hg10 mi
12:35 am61 °FClear.No wind100%30.00 "Hg10 mi
12:15 am63 °FClear.3 mph100%30.00 "Hg10 mi
11:55 pm
Fri, Apr 3
63 °FClear.No wind100%30.00 "Hg10 mi
11:35 pm63 °FClear.5 mph100%29.99 "Hg10 mi
11:15 pm61 °FClear.No wind100%29.99 "Hg10 mi
10:55 pm61 °FClear.No wind100%29.99 "Hg10 mi
10:35 pm61 °FClear.No wind100%30.01 "Hg10 mi
10:15 pm61 °FClear.No wind100%30.01 "Hg10 mi
9:55 pm61 °FClear.No wind100%30.00 "Hg10 mi
9:35 pm61 °FClear.No wind100%30.00 "Hg10 mi
9:15 pm61 °FClear.No wind100%29.99 "Hg10 mi
8:55 pm63 °FClear.No wind100%29.98 "Hg10 mi
8:35 pm63 °FClear.No wind100%29.97 "Hg10 mi
8:15 pm64 °FClear.No wind88%29.95 "Hg10 mi
7:55 pm64 °FClear.No wind94%29.94 "Hg10 mi
7:15 pm68 °FSunny.No wind78%29.94 "Hg10 mi
6:55 pm70 °FSunny.No wind69%29.95 "Hg10 mi
6:35 pm72 °FSunny.No wind65%29.95 "Hg10 mi
6:15 pm72 °FSunny.5 mph65%29.94 "Hg10 mi
5:55 pm72 °FSunny.7 mph65%29.95 "Hg10 mi
5:35 pm72 °FSunny.7 mph61%29.96 "Hg10 mi
5:15 pm72 °FSunny.7 mph61%29.95 "Hg10 mi
Weather by CustomWeather, © 2020

See weather overview

Advertising